Location: Caltech
(34.1382°N, 118.1253°W)
Time: 08:45:58
(UTC-07:00)

Cosmos 2084 - Visible Passes

Search period start: 24 June 2017 00:00
Search period end: 04 July 2017 00:00
Orbit: 495 x 691 km, 62.8° (Epoch: 23 June)

Date Brightness Start Highest point End Pass type
(mag) Time Alt. Az. Time Alt. Az. Time Alt. Az.
24 Jun 5.3 22:04:02 10° WSW 22:07:35 29° NW 22:11:01 10° N visible
25 Jun 3.8 20:33:12 10° S 20:37:00 37° ESE 20:40:38 10° NE visible
25 Jun 6.3 22:13:59 10° W 22:16:34 16° NW 22:19:06 10° N visible
26 Jun 6.7 05:02:38 10° NNE 05:04:48 14° NE 05:07:00 10° E visible
26 Jun 3.2 20:41:41 10° SSW 20:45:46 78° ESE 20:49:40 10° NE visible
27 Jun 6.0 05:10:34 10° N 05:13:48 25° NE 05:17:10 10° ESE visible
27 Jun 4.3 20:50:39 10° SW 20:54:36 51° WNW 20:58:24 10° NNE visible
28 Jun 5.8 21:00:05 10° WSW 21:03:31 26° NW 21:06:51 10° N visible
29 Jun 6.7 21:10:10 10° W 21:12:32 15° NW 21:14:50 10° NNW visible
30 Jun 6.5 03:58:20 10° N 04:00:44 16° NE 04:03:11 10° E visible
01 Jul 5.5 04:06:22 10° N 04:09:44 28° NE 04:13:12 10° ESE visible
02 Jul 4.0 04:14:50 10° NNW 04:18:38 54° ENE 04:22:36 10° SE visible
03 Jul 3.1 04:23:35 10° NW 04:27:27 73° WSW 04:31:31 10° SSE visible
